Tracking 19286 objects as of 19-Nov-2018
HD Live streaming from Space Station
objects crossing your sky now

COSMOS 2248

Track COSMOS 2248 now!
10-day predictions
COSMOS 2248 is classified as:


NORAD ID: 22649
Int'l Code: 1993-030D
Perigee: 1,407.5 km
Apogee: 1,424.3 km
Inclination: 82.6 °
Period: 114.0 minutes
Semi major axis: 7786 km
RCS: 1.0352 m2 (large)
Launch date: May 11, 1993
Source: Commonwealth of Independent States (former USSR) (CIS)
Launch site: PLESETSK MISSILE AND SPACE COMPLEX (PKMTR)
aabbcc
Your satellite tracking list
Your tracking list is empty




NASA's NSSDC Master Catalog

Two Line Element Set (TLE):
1 22649U 93030D   18323.41267300  .00000022  00000-0  59746-4 0  9997
2 22649  82.5770 280.4649 0010797  91.2558 268.9771 12.63448838177216
Source of the keplerian elements: AFSPC